World > North America > United States > New Hampshire   Wentworth Marina Website
Hourly Weather in Wentworth Marina, New HampshireWentworth Marina, New Hampshire Hourly Weather

Wentworth Marina, NH Hourly Weather

Hourly Weather Wentworth Marina, New HampshireHourly Weather in Wentworth Marina, NH
Lat: 43.06N, Lon: 70.73W  ICAO: KPSM
Web Search

Our weather pages are very print friendly and they make great conversation starters.

Feedback

Wentworth Marina Hourly Weather

36 Hour Weather Scroll   °F Click to change Wentworth Marina hourly weather to Imperial units.Click to change Wentworth Marina hourly weather to Metric units. °C
Currently, Overcast, temperature is 32°F0°C, dew point 15.4°F-9°C, humidity 49%. Wind direction is NNW at 10 mph16 km/h with visibility of 10 mile(s) mi16 km. Barometric pressure is 29.87 in1012 mb.

Nov 29
8:00 AM

Nov 29
9:00 AM

Nov 29
10:00 AM

Nov 29
11:00 AM

Nov 29
NOON

Nov 29
1:00 PM

Nov 29
2:00 PM

Nov 29
3:00 PM

Nov 29
4:00 PM

Nov 29
5:00 PM

Nov 29
6:00 PM

Nov 29
7:00 PM

Nov 29
8:00 PM

Nov 29
9:00 PM

Nov 29
10:00 PM

Nov 29
11:00 PM

Nov 30
MIDNIGHT

Nov 30
1:00 AM

Nov 30
2:00 AM

Nov 30
3:00 AM

Nov 30
4:00 AM

Nov 30
5:00 AM

Nov 30
6:00 AM

Nov 30
7:00 AM

Nov 30
8:00 AM

Nov 30
9:00 AM

Nov 30
10:00 AM

Nov 30
11:00 AM

Nov 30
NOON

Nov 30
1:00 PM

Nov 30
2:00 PM

Nov 30
3:00 PM

Nov 30
4:00 PM

Nov 30
5:00 PM

Nov 30
6:00 PM

Nov 30
7:00 PM
Cloudy Cloudy Cloudy Cloudy Mostly Cloudy Mostly Cloudy Mostly Cloudy Mostly Cloudy Mostly Cloudy Mostly Cloudy Partly Cloudy Partly Cloudy Partly Cloudy Clear Clear Clear Clear Clear Clear Clear Clear Clear Mostly Clear Mostly Clear Mostly Clear Mostly Clear Mostly Clear Mostly Clear Mostly Cloudy Mostly Cloudy Mostly Cloudy Cloudy Cloudy Cloudy Mostly Cloudy Mostly Cloudy
Cloudy Cloudy Cloudy Cloudy Mostly Cloudy Mostly Cloudy Mostly Cloudy Mostly Cloudy Mostly Cloudy Mostly Cloudy Partly Cloudy Partly Cloudy Partly Cloudy Clear Clear Clear Clear Clear Clear Clear Clear Clear Mostly Clear Mostly Clear Mostly Clear Mostly Clear Mostly Clear Mostly Clear Mostly Cloudy Mostly Cloudy Mostly Cloudy Cloudy Cloudy Cloudy Mostly Cloudy Mostly Cloudy
32°F0°C 33°F1°C 35°F2°C 36°F2°C 38°F3°C 39°F4°C 38°F3°C 36°F2°C 35°F2°C 33°F1°C 32°F0°C 30°F-1°C 29°F-2°C 28°F-2°C 27°F-3°C 26°F-3°C 26°F-3°C 25°F-4°C 24°F-4°C 24°F-4°C 23°F-5°C 23°F-5°C 22°F-6°C 22°F-6°C 25°F-4°C 28°F-2°C 31°F-1°C 33°F1°C 35°F2°C 37°F3°C 37°F3°C 36°F2°C 36°F2°C 35°F2°C 34°F1°C 33°F1°C
- - - - - - - - - - - - - - - - - - - - - - - - - - - - - - - - - - - -
5% 5% 5% 5% 5% 5% 0% 0% 0% 0% 0% 0% 0% 0% 0% 0% 0% 0% 0% 0% 0% 0% 0% 0% 0% 0% 0% 0% 0% 0% 1% 1% 1% 1% 1% 1%
20°F-7°C 20°F-7°C 20°F-7°C 20°F-7°C 19°F-7°C 19°F-7°C 18°F-8°C 18°F-8°C 17°F-8°C 16°F-9°C 16°F-9°C 15°F-9°C 15°F-9°C 15°F-9°C 15°F-9°C 15°F-9°C 14°F-10°C 14°F-10°C 14°F-10°C 13°F-11°C 13°F-11°C 13°F-11°C 12°F-11°C 12°F-11°C 12°F-11°C 13°F-11°C 13°F-11°C 13°F-11°C 13°F-11°C 13°F-11°C 14°F-10°C 15°F-9°C 16°F-9°C 17°F-8°C 18°F-8°C 19°F-7°C
61% 58% 54% 52% 46% 44% 44% 48% 47% 49% 51% 53% 55% 58% 60% 63% 60% 62% 65% 62% 65% 65% 65% 65% 57% 53% 47% 43% 40% 37% 38% 42% 44% 47% 51% 56%
NNW NNW NNW NNW NW NW NW NW NW NW NW NW NW NW NW NW WNW W W WNW WNW W W W W W W W SSW SSW SSW SSW SSW SSW SSW SSW
5 mph 8 mph 8 mph 8 mph 10 mph 10 mph 10 mph 10 mph 10 mph 10 mph 8 mph 8 mph 8 mph 7 mph 7 mph 7 mph 6 mph 6 mph 6 mph 5 mph 5 mph 5 mph 4 mph 4 mph 4 mph 7 mph 7 mph 7 mph 10 mph 10 mph 10 mph 8 mph 8 mph 8 mph 6 mph 6 mph
10 mi16 km 10 mi16 km 10 mi16 km 10 mi16 km 10 mi16 km 10 mi16 km 10 mi16 km 10 mi16 km 10 mi16 km 10 mi16 km 10 mi16 km 10 mi16 km 10 mi16 km 10 mi16 km 10 mi16 km 10 mi16 km 10 mi16 km 10 mi16 km 10 mi16 km 10 mi16 km 10 mi16 km 10 mi16 km 10 mi16 km 10 mi16 km 10 mi16 km 10 mi16 km 10 mi16 km 10 mi16 km 10 mi16 km 10 mi16 km 10 mi16 km 10 mi16 km 10 mi16 km 10 mi16 km 10 mi16 km 10 mi16 km
Hour (EST)
Weather
Clouds
Temperature
Precip. Type
POP
Dewpoint
Humidity
Wind Direction
Wind Speed
Visibility
POP = Probability of Precipitation. ** Indicates missing data/values from model statistics.

24 Hour Forecast

Today - Mostly cloudy this morning, then becoming partly sunny. Highs around 40. North winds around 10 mph with gusts up to 20 mph.
Tonight - Mostly clear. Lows in the lower 20s. Northwest winds around 10 mph with gusts up to 20 mph.

48 Hour Forecast API Feed


Mon, Nov 29
8:00 am

Mon, Nov 29
9:00 am

Mon, Nov 29
10:00 am

Mon, Nov 29
11:00 am

Mon, Nov 29
Noon

Mon, Nov 29
1:00 pm

Mon, Nov 29
2:00 pm

Mon, Nov 29
3:00 pm

Mon, Nov 29
4:00 pm

Mon, Nov 29
5:00 pm

Mon, Nov 29
6:00 pm

Mon, Nov 29
7:00 pm

Mon, Nov 29
8:00 pm

Mon, Nov 29
9:00 pm

Mon, Nov 29
10:00 pm

Mon, Nov 29
11:00 pm

Tue, Nov 30
Midnight

Tue, Nov 30
1:00 am

Tue, Nov 30
2:00 am

Tue, Nov 30
3:00 am

Tue, Nov 30
4:00 am

Tue, Nov 30
5:00 am

Tue, Nov 30
6:00 am

Tue, Nov 30
7:00 am

Tue, Nov 30
8:00 am

Tue, Nov 30
9:00 am

Tue, Nov 30
10:00 am

Tue, Nov 30
11:00 am

Tue, Nov 30
Noon

Tue, Nov 30
1:00 pm

Tue, Nov 30
2:00 pm

Tue, Nov 30
3:00 pm

Tue, Nov 30
4:00 pm

Tue, Nov 30
5:00 pm

Tue, Nov 30
6:00 pm

Tue, Nov 30
7:00 pm

Tue, Nov 30
8:00 pm

Tue, Nov 30
9:00 pm

Tue, Nov 30
10:00 pm

Tue, Nov 30
11:00 pm

Wed, Dec 1
Midnight

Wed, Dec 1
1:00 am

Wed, Dec 1
2:00 am

Wed, Dec 1
3:00 am

Wed, Dec 1
4:00 am

Wed, Dec 1
5:00 am

Wed, Dec 1
6:00 am

Wed, Dec 1
7:00 am
OvercastOvercastOvercastOvercastPartly CloudyPartly CloudyPartly CloudyPartly CloudyCloudyOvercastCloudyCloudyCloudyCloudyCloudyPartly CloudyClearClearClearClearClearClearClearSunnySunnySunnySunnySunnyPartly CloudySunnyCloudyOvercastOvercastOvercastOvercastOvercastOvercastOvercastClearClearPartly CloudyPartly CloudyClearPartly CloudyPartly CloudyClearClearSunny
Overcast Overcast Overcast Overcast Partly cloudy Partly cloudy Partly cloudy Partly cloudy Cloudy Overcast Cloudy Cloudy Cloudy Cloudy Cloudy Partly cloudy Clear Clear Clear Clear Clear Clear Clear Sunny Sunny Sunny Sunny Sunny Partly cloudy Sunny Cloudy Overcast Overcast Overcast Overcast Overcast Overcast Overcast Clear Clear Partly cloudy Partly cloudy Clear Partly cloudy Partly cloudy Clear Clear Sunny
30°F
-1°C
31°F
-0°C
33°F
1°C
35°F
2°C
37°F
3°C
39°F
4°C
40°F
4°C
40°F
4°C
39°F
4°C
36°F
2°C
33°F
1°C
32°F
0°C
30°F
-1°C
29°F
-1°C
28°F
-2°C
28°F
-3°C
27°F
-3°C
26°F
-3°C
26°F
-3°C
26°F
-4°C
26°F
-3°C
26°F
-4°C
26°F
-4°C
26°F
-4°C
26°F
-4°C
28°F
-2°C
31°F
-0°C
35°F
2°C
37°F
3°C
40°F
4°C
39°F
4°C
39°F
4°C
38°F
3°C
37°F
3°C
35°F
2°C
35°F
1°C
33°F
1°C
32°F
0°C
31°F
-1°C
30°F
-1°C
29°F
-1°C
30°F
-1°C
30°F
-1°C
30°F
-1°C
31°F
-1°C
31°F
-1°C
31°F
-0°C
33°F
1°C
21°F
-6°C
19°F
-7°C
19°F
-8°C
19°F
-7°C
20°F
-7°C
20°F
-7°C
20°F
-7°C
20°F
-7°C
22°F
-6°C
23°F
-5°C
23°F
-5°C
22°F
-5°C
21°F
-6°C
20°F
-7°C
19°F
-7°C
19°F
-7°C
18°F
-8°C
18°F
-8°C
16°F
-9°C
15°F
-9°C
15°F
-9°C
15°F
-9°C
15°F
-9°C
15°F
-9°C
16°F
-9°C
16°F
-9°C
16°F
-9°C
16°F
-9°C
16°F
-9°C
18°F
-8°C
19°F
-7°C
21°F
-6°C
23°F
-5°C
24°F
-4°C
25°F
-4°C
25°F
-4°C
25°F
-4°C
25°F
-4°C
26°F
-4°C
26°F
-3°C
27°F
-3°C
27°F
-3°C
28°F
-2°C
28°F
-2°C
28°F
-2°C
28°F
-2°C
28°F
-2°C
28°F
-2°C
29.85 in
1011 mb
29.85 in
1011 mb
29.85 in
1011 mb
29.85 in
1011 mb
29.83 in
1010 mb
29.8 in
1009 mb
29.8 in
1009 mb
29.8 in
1009 mb
29.8 in
1009 mb
29.8 in
1009 mb
29.83 in
1010 mb
29.83 in
1010 mb
29.85 in
1011 mb
29.85 in
1011 mb
29.85 in
1011 mb
29.85 in
1011 mb
29.85 in
1011 mb
29.85 in
1011 mb
29.85 in
1011 mb
29.88 in
1012 mb
29.88 in
1012 mb
29.88 in
1012 mb
29.88 in
1012 mb
29.88 in
1012 mb
29.91 in
1013 mb
29.91 in
1013 mb
29.91 in
1013 mb
29.91 in
1013 mb
29.88 in
1012 mb
29.88 in
1012 mb
29.88 in
1012 mb
29.85 in
1011 mb
29.88 in
1012 mb
29.88 in
1012 mb
29.88 in
1012 mb
29.88 in
1012 mb
29.91 in
1013 mb
29.91 in
1013 mb
29.94 in
1014 mb
29.91 in
1013 mb
29.94 in
1014 mb
29.94 in
1014 mb
29.94 in
1014 mb
29.94 in
1014 mb
29.94 in
1014 mb
29.94 in
1014 mb
29.97 in
1015 mb
30 in
1016 mb
70%61%55%52%49%46%45%45%49%59%65%67%67%67%68%70%70%69%67%64%63%64%64%65%66%61%52%45%41%41%43%47%54%60%66%68%71%75%80%85%88%91%91%91%89%89%87%81%
NNWNNNNNNNWNNWNNWNWNWWNWNWNNWNWWNWWNWWNWWNWWNWNWNWWNWWNWWWWWWWWWSWWSWWSWSWSWWSWWSWWSWWSWWSWWSWWSWWSWSWWSWWSWWSW
6 mph
10 km/h
8 mph
12 km/h
9 mph
15 km/h
9 mph
14 km/h
9 mph
14 km/h
7 mph
12 km/h
7 mph
12 km/h
7 mph
12 km/h
8 mph
13 km/h
7 mph
12 km/h
8 mph
12 km/h
8 mph
13 km/h
8 mph
13 km/h
6 mph
10 km/h
6 mph
9 km/h
6 mph
9 km/h
7 mph
12 km/h
8 mph
12 km/h
8 mph
13 km/h
8 mph
13 km/h
8 mph
13 km/h
7 mph
11 km/h
6 mph
9 km/h
5 mph
9 km/h
6 mph
10 km/h
8 mph
12 km/h
9 mph
14 km/h
10 mph
15 km/h
10 mph
16 km/h
10 mph
17 km/h
11 mph
18 km/h
10 mph
16 km/h
9 mph
15 km/h
8 mph
13 km/h
8 mph
13 km/h
9 mph
14 km/h
8 mph
13 km/h
8 mph
13 km/h
8 mph
13 km/h
7 mph
12 km/h
8 mph
13 km/h
8 mph
13 km/h
9 mph
14 km/h
9 mph
14 km/h
10 mph
15 km/h
10 mph
16 km/h
11 mph
17 km/h
11 mph
18 km/h
0%0%0%0%0%0%0%0%0%0%0%0%0%0%0%0%0%0%0%0%0%0%0%0%0%0%0%0%0%0%0%0%0%0%0%0%0%0%0%0%0%0%0%0%0%0%0%0%
6 mi
10 km
6 mi
10 km
6 mi
10 km
6 mi
10 km
6 mi
10 km
6 mi
10 km
6 mi
10 km
6 mi
10 km
6 mi
10 km
6 mi
10 km
6 mi
10 km
6 mi
10 km
6 mi
10 km
6 mi
10 km
6 mi
10 km
6 mi
10 km
6 mi
10 km
6 mi
10 km
6 mi
10 km
6 mi
10 km
6 mi
10 km
6 mi
10 km
6 mi
10 km
6 mi
10 km
6 mi
10 km
6 mi
10 km
6 mi
10 km
6 mi
10 km
6 mi
10 km
6 mi
10 km
6 mi
10 km
6 mi
10 km
6 mi
10 km
6 mi
10 km
6 mi
10 km
6 mi
10 km
6 mi
10 km
6 mi
10 km
6 mi
10 km
6 mi
10 km
6 mi
10 km
6 mi
10 km
6 mi
10 km
6 mi
10 km
6 mi
10 km
6 mi
10 km
6 mi
10 km
6 mi
10 km

Day/Time
Weather
Condition
Temperature
Dew Point
Pressure
Humidity
Wind Direction
Wind Speed
Prob Precip %
Visibility
Prob Precip % = Probability of Precipitation.